User: anonymous   Login
Location: Unspecified
(0.0000°N, 0.0000°E)
Time: 08:16:33
(UTC+00:00)
Language:

GONETS M03 - Orbit

View from above orbital plane
View from above orbital plane
View from above satellite
View from above satellite

Ground track
Ground track

The orbit data is extracted from the following two-line orbital elements,

1 38734U 12041B   19345.78391372 +.00000016 +00000-0 +43492-4 0  9998
2 38734 082.4726 114.9704 0015857 228.1371 131.8357 12.44809198334680
Epoch (UTC): 11 December 2019 18:48:50
Eccentricity: 0.0015857
inclination: 82.4726°
perigee height: 1474 km
apogee height: 1499 km
right ascension of ascending node: 114.9704°
argument of perigee: 228.1371°
revolutions per day: 12.44809198
mean anomaly at epoch: 131.8357°
orbit number at epoch: 33468

The dashed part of the orbit path shows where the satellite is in the earth's shadow,  

DLR